sat.trackr.live / text

‹ back to catalog

ONEWEB-0588

NORAD 55153 · 2023-004P

PAYLOAD ACTIVE UNKNOWN

§ Identity

Operator
Country
UK
Launch date
2023-01-10
Launch site
AFETR
Launch vehicle
Mass (kg)
RCS (m²)

Purposes: comms

External: N2YO · Heavens-Above · Gunter

§ Orbital elements

Epoch: 2026-09-19T22:53:34.564992Z

Period
109.20 min
Inclination
87.9150°
Eccentricity
0.0001800
Mean motion
13.18685952 rev/d
Perigee alt
1,188.4 km
Apogee alt
1,191.1 km
Semi-major
7,567.9 km
B*
-3.0679e-5
RAAN
316.6342°
Arg perigee
111.4449°
Mean anomaly
248.6875°
Rev number
18,218

§ Raw data

ONEWEB-05881 55153U 23004P   26262.95387228  .00000001  00000+0 -30679-4 0  99902 55153  87.9150 316.6342 0001800 111.4449 248.6875 13.18685952182187

JSON: /api/v1/satellites/55153 · /tle

For live sub-satellite position, see the globe view (requires WebGL).

§ Visibility from observer

Set your observer location to see the next 7 days of passes ≥ 10°. The values pass through the URL so the page stays shareable.

No JS? Fill the form by hand. The geolocation button needs JavaScript.